SCP
-0 -0 0 0 0 0 0 0 0 0 0 0 0 0 0 0 0 0 1 1 1 1 1 2 2 2 2 2 2 2 2 2 2 2 2 2 2 1 1 1 1 1 1 1
-0 -0 0 0 0 0 0 0 0 0 0 0 0 0 0 0 0 0 1 1 1 1 1 2 2 2 2 2 2 2 2 2 2 2 2 2 2 2 1 1 1 1 1 1
-0 -0 0 0 0 0 0 0 0 0 0 0 0 0 0 0 0 0 1 1 1 1 1 2 2 2 2 2 2 2 2 2 2 2 2 2 2 2 1 1 1 1 1 1
-0 0 0 0 0 0 0 0 0 0 0 0 0 0 0 0 0 0 1 1 1 1 1 1 2 2 2 2 2 2 2 2 2 2 2 2 2 1 1 1 1 1 1 0
-0 0 0 0 0 0 0 0 0 0 0 0 0 0 0 0 0 0 1 1 1 1 1 1 2 2 2 2 2 2 2 2 2 2 2 2 1 1 1 1 1 1 1 0
-0 0 0 0 0 0 0 0 0 0 0 0 0 0 0 0 0 1 1 1 1 1 1 1 2 2 2 2 2 2 2 2 2 1 1 1 1 1 1 1 1 1 0 0
0 0 0 0 0 0 0 0 0 0 0 0 0 0 0 0 0 1 1 1 1 1 1 2 2 2 2 2 2 2 2 2 1 1 1 1 1 1 1 1 1 0 0 0
0 0 0 0 0 0 0 0 0 0 0 0 0 0 0 0 1 1 1 1 1 1 1 2 2 2 2 2 2 2 2 1 1 1 1 1 1 1 1 1 0 0 0 0
0 0 0 0 0 0 0 0 0 0 0 0 0 0 0 0 1 1 1 1 1 1 1 1 1 1 1 1 2 2 1 1 1 1 1 1 1 1 1 0 0 0 0 0
0 0 0 0 0 0 0 0 0 0 0 0 0 0 0 1 1 1 1 1 1 1 1 1 1 1 1 1 1 1 1 1 1 1 1 1 1 1 0 0 0 0 0 0
0 0 0 0 0 0 0 0 0 0 0 0 0 0 0 1 1 1 1 1 1 1 1 1 1 1 1 1 1 1 1 1 1 1 1 1 0 0 0 0 0 0 0 0
0 0 0 0 0 0 0 0 0 0 0 0 0 0 0 1 1 1 1 1 1 1 1 1 1 1 1 1 1 1 1 1 1 0 0 0 0 0 0 0 0 0 0 0
0 0 0 0 0 0 0 0 0 0 0 0 0 0 0 0 1 1 1 1 1 1 1 1 1 1 1 1 1 1 1 1 0 0 0 0 0 0 0 0 0 0 0 0
0 0 0 0 0 0 0 0 0 0 0 0 0 0 0 0 0 1 1 1 1 1 1 1 0 0 0 0 1 1 0 0 0 0 0 0 0 0 0 0 0 0 0 0
0 0 0 0 0 0 0 0 0 0 0 0 0 0 0 0 0 1 1 0 0 0 0 0 0 0 0 0 0 0 0 0 0 0 0 0 0 0 0 0 0 0 0 0
0 0 0 0 0 0 0 0 0 0 0 0 0 0 0 0 0 0 0 0 0 0 0 0 0 0 0 0 0 0 0 0 0 0 0 0 0 0 0 0 0 0 0 0
0 0 0 0 0 0 0 0 0 0 0 0 0 0 0 0 0 0 0 0 0 0 0 0 0 0 0 0 0 0 0 0 0 0 0 0 0 0 0 0 0 0 0 0
0 0 0 0 0 0 0 0 0 0 0 0 0 0 0 0 0 0 0 0 0 0 0 0 0 0 0 0 0 0 0 0 0 0 0 0 0 0 0 0 0 0 0 0
0 0 0 0 0 0 0 0 0 0 0 0 0 0 0 0 0 0 0 0 0 0 0 0 0 0 0 0 0 0 0 0 0 0 0 0 0 0 0 0 0 0 0 0
0 0 0 0 0 0 0 0 0 0 0 0 0 0 0 0 0 0 0 0 0 0 0 0 0 0 0 0 0 0 0 0 0 0 0 0 0 0 0 0 0 0 0 0
0 0 0 0 0 0 0 0 0 0 0 0 0 0 0 0 0 0 0 0 0 0 0 0 0 0 0 0 0 0 0 0 0 0 0 0 0 0 0 0 0 0 0 0
0 0 0 0 0 0 0 0 0 0 0 0 0 0 0 0 0 0 0 0 0 0 0 0 0 0 0 0 0 0 0 0 0 0 0 0 0 0 0 0 0 0 0 0
0 0 0 0 0 0 0 0 0 0 0 0 0 0 0 0 0 0 0 0 0 0 0 0 0 0 0 0 0 0 0 0 0 0 0 0 0 0 0 0 0 0 0 0
0 0 0 0 0 0 0 0 0 0 0 0 0 0 0 0 0 0 0 0 0 0 0 0 0 0 0 0 0 0 0 0 0 0 0 0 0 0 0 0 0 0 0 0
0 0 0 0 0 0 0 0 0 0 0 0 0 0 0 0 0 0 0 0 0 0 0 0 0 0 0 0 0 0 0 0 0 0 0 0 0 0 0 0 0 0 0 0
0 0 0 0 0 0 0 0 0 0 0 0 0 0 0 0 0 0 0 0 0 0 0 0 0 0 0 0 0 0 0 0 0 0 0 0 0 0 0 0 0 0 0 0
Wind_Speed
10 11 10 9 9 8 11 11 9 7 7 8 8 7 8 10 10 10 8 9 9 9 10 9 10 10 9 7 7 6 6 5 3 3 2 2 2 1 2 2 2 1 1 2
10 12 11 8 7 7 11 10 8 7 7 8 8 9 9 10 11 10 9 9 10 9 10 9 9 9 9 8 7 6 5 5 4 2 2 2 1 1 1 2 2 1 1 2
11 6 6 8 7 8 10 10 7 6 7 9 10 11 11 10 11 10 9 9 9 10 11 11 9 9 10 8 7 6 5 5 3 3 2 2 2 1 1 2 2 1 1 2
9 6 7 8 8 9 9 9 8 8 9 9 10 9 9 8 8 9 9 9 10 10 11 11 11 10 9 8 7 6 5 5 4 3 2 2 2 2 2 1 2 1 1 1
9 7 7 9 8 7 8 11 9 10 12 11 9 9 9 8 9 9 10 9 9 9 11 11 11 11 10 8 7 6 5 4 4 3 2 2 1 1 2 2 2 1 1 1
11 8 7 8 6 6 7 10 11 10 10 11 10 10 9 5 5 6 8 9 8 8 9 10 10 10 9 8 8 7 6 5 3 3 2 1 1 1 2 1 1 1 1 1
10 10 8 7 7 7 8 8 6 7 7 8 7 8 5 3 6 8 9 8 8 8 8 9 10 10 9 8 8 7 7 5 4 4 2 2 2 1 1 1 0 1 0 1
10 8 6 6 8 8 8 10 7 8 9 9 6 6 2 1 4 9 10 9 9 8 8 8 8 8 8 8 7 7 7 6 5 4 3 2 2 1 1 1 0 0 1 1
9 7 4 7 8 9 10 8 8 8 11 12 8 4 2 3 6 7 10 10 9 8 8 8 8 6 7 8 7 7 6 6 5 4 4 3 2 2 1 0 0 1 1 0
9 10 8 7 8 10 9 7 5 6 8 9 9 7 1 3 5 6 8 8 9 9 9 9 7 6 6 7 7 7 6 5 4 4 3 3 2 2 1 1 1 1 1 1
7 8 9 8 9 11 9 8 6 6 7 8 7 4 1 2 3 5 6 7 8 10 9 8 7 6 6 6 7 7 6 6 5 4 3 3 2 2 1 1 1 1 1 1
5 6 9 9 9 10 9 9 7 6 8 7 7 3 2 3 4 6 6 6 8 8 9 8 8 7 6 6 7 7 6 6 5 4 3 3 2 2 2 1 1 0 1 1
5 5 8 7 5 5 7 9 9 7 7 7 6 3 3 3 4 7 7 7 7 7 7 8 7 7 6 6 6 6 5 5 5 5 4 3 3 2 2 1 1 0 1 1
3 6 9 10 8 8 9 12 11 9 7 7 5 4 1 1 4 7 8 7 6 6 6 6 7 6 6 5 6 5 5 4 4 4 4 3 2 3 2 2 1 1 1 1
3 8 11 12 11 11 12 12 11 9 10 8 5 3 1 2 3 6 8 8 6 7 7 6 6 6 6 5 5 5 5 4 3 3 3 3 2 2 2 1 1 1 1 1
3 6 10 12 12 12 12 12 11 9 9 7 5 2 2 4 5 7 8 7 6 6 7 7 6 6 6 5 5 5 5 4 3 3 3 3 3 3 2 2 1 1 0 1
5 6 8 10 11 11 10 8 8 7 7 6 4 1 4 5 5 5 6 6 7 7 6 7 6 6 5 5 4 6 6 5 4 3 3 3 3 3 2 2 1 1 0 1
7 7 6 8 11 10 5 3 4 5 5 3 1 2 3 4 4 4 5 6 6 7 6 6 6 6 6 5 4 5 6 5 5 4 3 3 3 2 2 2 2 1 0 1
8 7 7 7 10 8 5 4 4 4 4 2 1 2 4 5 4 5 5 5 6 6 7 6 6 6 6 5 5 6 6 5 5 4 3 3 2 2 1 1 1 1 1 2
9 8 7 8 8 7 3 4 3 3 3 3 3 3 4 3 2 3 5 5 5 6 7 6 6 6 6 6 6 6 5 5 4 3 3 2 1 2 2 1 1 1 2 2
6 7 8 10 9 5 1 1 2 3 2 3 2 2 3 2 2 5 6 5 6 6 7 7 7 6 5 5 6 6 5 4 4 3 2 2 1 1 2 2 1 2 2 3
7 6 6 7 8 4 3 2 2 3 2 2 1 1 3 5 6 6 6 6 6 7 7 7 6 5 5 5 6 5 5 4 3 3 3 2 1 2 1 1 2 2 3 3
6 4 2 3 3 1 1 1 1 1 1 1 1 2 4 6 6 6 6 6 6 6 6 6 5 5 5 5 6 6 5 5 4 3 3 2 2 2 2 3 3 3 3 3
5 3 4 4 3 1 1 1 0 1 1 1 1 2 3 6 7 7 6 6 6 6 6 5 6 5 5 6 6 5 5 5 4 4 3 3 3 3 2 2 3 2 2 2
7 6 7 6 4 2 3 1 0 1 1 1 2 3 5 7 7 7 6 7 6 6 6 5 5 5 5 6 7 6 5 5 4 4 3 3 3 3 2 2 2 2 1 1
7 6 6 4 2 2 2 2 1 1 2 3 3 3 5 6 7 7 7 6 7 7 6 6 5 5 6 6 6 6 6 6 5 4 4 3 3 3 3 3 2 3 5 5
Wind_Direction
221 236 244 236 234 262 271 267 270 254 243 235 232 222 210 195 205 193 189 174 168 170 165 154 148 148 148 145 147 154 153 151 157 159 171 164 152 130 116 115 102 92 56 12
231 235 252 258 248 264 278 272 268 259 240 241 244 238 224 200 213 197 186 178 169 168 158 149 151 150 153 156 160 160 154 153 158 158 162 168 148 150 128 97 102 79 56 17
251 251 244 258 247 253 261 256 258 268 262 252 249 251 234 212 206 193 187 174 176 173 160 156 161 160 156 157 157 152 147 149 149 159 156 144 144 172 123 111 113 77 57 46
261 258 257 256 257 260 274 285 266 265 264 262 256 260 246 222 206 192 186 178 184 178 167 166 167 169 160 154 148 143 145 149 154 161 156 164 159 144 131 132 104 96 100 73
272 260 247 254 262 272 283 292 287 276 268 268 265 265 263 223 207 192 185 181 176 177 166 162 166 165 156 153 147 142 138 146 149 157 165 177 140 113 96 90 110 145 162 161
278 272 267 271 274 278 280 284 283 270 261 256 253 254 258 227 190 181 173 166 157 163 157 152 152 148 147 149 145 142 143 141 148 154 143 141 143 112 112 108 147 195 171 140
272 262 254 259 271 265 253 264 274 270 258 258 252 255 267 229 193 170 157 156 155 148 147 147 147 147 146 149 146 146 147 146 147 144 146 137 120 140 150 130 278 289 69 71
277 270 251 248 259 271 261 259 268 283 292 292 279 270 263 175 134 129 134 135 138 140 141 142 142 143 147 146 144 146 147 149 149 147 141 135 159 174 110 98 255 12 47 41
282 282 265 261 262 263 267 271 287 285 284 284 280 273 264 144 127 132 136 141 145 141 135 134 133 140 145 145 144 145 143 143 148 148 142 148 136 96 82 70 7 46 45 17
289 293 277 263 265 257 259 277 289 286 285 284 284 287 307 131 140 144 143 144 143 141 137 135 136 138 136 137 138 140 144 146 142 143 159 145 130 131 129 83 56 37 30 14
286 286 275 266 263 267 260 256 259 267 276 287 288 308 73 146 146 159 150 142 141 141 139 138 137 133 128 134 138 142 145 145 145 149 138 122 130 138 137 138 102 46 12 333
298 288 284 274 276 279 280 281 273 270 278 280 286 294 84 129 141 141 134 132 132 135 135 137 140 137 139 146 143 147 150 151 152 149 136 146 157 154 152 124 104 59 332 322
315 295 286 277 276 278 287 285 277 279 284 284 287 275 132 132 117 115 120 122 125 135 137 142 146 145 146 152 148 149 155 156 158 151 146 147 160 151 138 138 143 137 318 317
296 274 275 279 288 299 285 283 284 284 280 283 275 276 286 46 109 116 121 122 134 143 144 149 148 148 146 152 154 151 149 153 158 152 147 147 156 144 145 157 167 194 261 282
263 270 277 277 281 284 279 275 273 272 277 281 279 276 205 201 147 132 132 142 159 158 160 159 154 150 152 151 152 153 150 157 151 155 162 158 160 155 155 156 185 202 249 288
247 265 280 280 275 275 276 276 271 268 277 281 274 270 150 152 138 140 145 155 165 170 172 163 164 160 160 158 161 160 158 162 161 174 178 162 166 169 165 174 183 186 279 342
258 254 267 277 280 281 275 288 291 292 295 297 305 87 127 133 140 144 154 169 174 174 174 165 165 163 161 160 162 168 165 170 175 181 175 167 177 175 176 182 136 108 13 333
254 268 271 279 285 273 278 307 312 308 310 327 66 132 123 133 129 141 158 171 170 166 169 163 161 162 161 163 169 172 168 175 181 184 180 171 175 175 159 138 126 134 278 283
216 242 261 264 271 279 279 300 306 317 310 350 109 110 110 117 137 158 151 154 157 159 152 152 159 162 161 164 175 174 176 179 181 181 175 176 178 155 153 145 150 179 250 273
203 208 240 258 267 274 301 342 359 324 277 50 78 100 123 146 199 154 130 128 131 132 140 149 157 156 162 169 176 174 172 172 179 177 173 166 160 159 158 144 180 226 251 256
231 227 241 259 260 260 343 320 301 284 28 28 65 127 166 187 81 115 132 133 131 133 145 152 156 159 165 168 168 170 171 175 177 169 164 151 143 160 170 169 204 242 259 266
256 245 244 260 263 257 36 335 358 43 13 347 4 128 139 115 119 134 140 139 142 146 148 153 155 158 161 163 165 169 172 169 170 171 167 154 175 230 190 172 224 243 255 264
258 258 258 259 270 65 30 66 77 88 294 314 308 136 132 135 148 147 146 146 149 152 150 150 159 159 160 171 169 171 173 174 177 172 166 170 198 225 200 211 228 235 242 254
277 284 257 247 228 241 294 148 106 318 280 252 178 147 157 149 149 147 151 152 152 149 147 152 159 166 171 171 173 173 176 175 174 172 172 188 208 214 208 227 232 238 244 260
283 284 272 259 248 248 259 249 188 310 258 144 139 167 164 150 154 155 155 156 156 154 154 159 165 167 170 173 172 175 173 170 173 179 192 213 220 217 211 226 250 262 270 249
264 264 271 275 227 228 239 215 210 250 226 181 177 163 152 152 154 153 155 157 159 161 160 166 173 177 172 169 171 170 170 174 176 188 206 223 226 213 216 215 230 245 244 240